Location: Ahstedt
(52.2048°N, 10.1060°E)
Time: 23:33:10
(UTC+00:00)

Cosmos 1943 Rocket - Pass Details

Date: 18 January 2026
Orbit: 811 x 842 km, 71.0° (Epoch: 17 February)

Event Time Altitude Azimuth Distance (km) Brightness Sun altitude
Exits shadow 06:07:13 - 247° (WSW) 2,952 4.6 -10.6°
Reaches altitude 10° 06:08:50 10° 254° (WSW) 2,399 4.1 -10.4°
Maximum altitude 06:13:43 32° 317° (NW) 1,373 2.9 -9.7°
Drops below altitude 10° 06:18:38 10° 20° (NNE) 2,414 4.6 -9.0°
Sets 06:21:21 0° 30° (NNE) 3,353 5.4 -8.6°
